Location: Unspecified
(33.6682°S, 0.0000°E)
Time: 12:53:06
(UTC+00:00)

Vanguard 1 - Pass Details

Date: 26 June 2019
Orbit: 653 x 3830 km, 34.3° (Epoch: 17 July)

Event Time Altitude Azimuth Distance (km) Brightness Sun altitude
Rises 21:33:46 0° 259° (W) 6,088 14.6 -55.9°
Reaches altitude 10° 21:37:58 10° 268° (W) 5,489 14.2 -56.7°
Maximum altitude 21:52:25 31° 322° (NW) 4,945 13.5 -59.7°
Enters shadow 22:00:08 26° 351° (N) 5,555 13.7 -61.3°
